Total_Precipitation_Accumulation
1.39 1.30 2.06 3.05 3.37 2.54 2.17 1.91 1.50 1.33 1.13 0.95 0.78 0.78 0.99 1.28 1.42 1.65 1.69 1.80 1.17 1.09 1.29 1.73 2.18 2.01 1.76 1.62 1.50 1.38 1.20 0.92 0.79 0.75 0.74 0.64 0.57 0.56 0.55 0.54 0.48 0.50 0.51 0.50 0.58 0.68 0.66 0.69 0.77
1.00 1.60 2.64 3.53 3.01 2.23 2.21 1.93 1.64 1.37 1.03 0.77 0.62 0.62 0.66 0.60 0.51 0.91 1.84 2.06 1.24 1.02 1.16 1.38 1.97 1.89 1.73 1.62 1.45 1.47 1.24 0.94 0.80 0.77 0.71 0.61 0.56 0.59 0.64 0.63 0.54 0.53 0.53 0.51 0.53 0.64 0.62 0.62 0.70
1.41 2.32 3.23 3.30 2.37 2.11 2.18 1.94 1.64 1.08 0.76 0.69 0.62 0.54 0.58 0.72 0.77 1.26 1.87 1.55 1.12 1.00 1.15 1.66 2.03 1.73 1.58 1.45 1.41 1.47 1.31 1.09 0.94 0.82 0.72 0.66 0.61 0.61 0.69 0.63 0.60 0.59 0.58 0.59 0.61 0.66 0.63 0.58 0.58
1.86 2.80 3.18 2.79 2.17 1.82 1.73 1.72 1.45 1.04 0.78 0.54 0.51 0.54 0.56 0.85 0.95 1.26 1.38 1.10 0.95 0.99 1.13 1.51 1.72 1.57 1.47 1.39 1.32 1.31 1.31 1.29 1.08 0.90 0.83 0.79 0.73 0.71 0.75 0.73 0.66 0.67 0.67 0.69 0.67 0.65 0.65 0.63 0.63
2.32 2.88 2.86 2.62 2.22 1.85 1.53 1.45 1.34 1.13 0.90 0.63 0.62 0.69 0.91 1.36 1.29 1.22 1.18 0.97 0.82 0.83 0.98 1.24 1.49 1.40 1.33 1.30 1.26 1.19 1.25 1.32 1.17 0.91 0.90 0.92 0.83 0.81 0.82 0.83 0.72 0.72 0.71 0.73 0.75 0.69 0.69 0.67 0.68
2.73 2.70 2.70 2.61 2.41 2.06 1.68 1.33 1.20 1.08 0.83 0.68 0.72 0.77 1.22 1.64 1.58 1.52 1.27 1.23 1.04 0.91 0.90 1.01 1.26 1.33 1.23 1.24 1.28 1.13 1.11 1.19 1.12 0.99 0.92 0.86 0.85 0.88 0.88 0.82 0.78 0.76 0.78 0.79 0.80 0.80 0.75 0.70 0.72
2.59 2.47 2.46 2.11 2.18 2.41 1.81 1.16 1.20 1.11 1.00 0.82 0.63 0.77 1.20 1.45 1.33 1.30 1.23 1.27 1.32 1.27 1.14 0.98 0.96 1.08 1.11 1.16 1.24 1.16 1.09 1.08 1.02 1.06 1.00 0.96 0.93 0.88 0.83 0.82 0.82 0.82 0.84 0.85 0.81 0.78 0.76 0.76 0.79
2.13 2.12 2.06 2.04 2.19 2.31 1.60 0.99 0.92 1.04 0.96 0.67 0.68 0.83 1.07 1.06 0.94 1.00 1.18 1.39 1.37 1.31 1.20 1.02 0.92 0.91 0.96 0.89 1.02 1.20 1.23 1.15 1.04 1.02 1.01 1.01 0.95 0.87 0.82 0.75 0.78 0.85 0.88 0.93 0.92 0.84 0.84 0.85 0.82
1.80 2.11 2.31 2.41 2.31 1.95 1.28 1.01 0.83 0.78 0.75 0.65 0.63 0.69 0.75 0.65 0.71 0.88 0.96 1.03 1.13 1.09 1.03 0.96 0.93 0.94 1.01 1.03 1.00 1.21 1.28 1.19 1.00 0.90 0.94 0.94 0.80 0.82 0.84 0.75 0.90 0.93 0.98 1.01 1.01 0.97 0.95 0.90 0.87
1.81 2.09 2.17 1.80 1.41 1.29 1.11 1.00 0.92 0.94 0.96 0.77 0.66 0.68 0.71 0.66 0.68 0.76 0.81 0.85 0.87 0.85 0.78 0.74 0.74 0.80 0.91 1.00 1.34 1.55 1.34 1.22 0.95 0.94 0.83 0.89 0.96 1.03 0.86 0.81 1.02 1.06 1.11 1.09 1.09 1.11 1.01 0.84 0.70
1.49 1.80 1.55 1.33 1.07 0.87 0.91 0.95 0.80 0.89 1.01 0.82 0.73 0.68 0.73 0.74 0.71 0.75 0.75 0.69 0.69 0.65 0.57 0.53 0.49 0.51 0.60 0.80 1.15 1.43 1.55 1.52 1.43 1.19 0.96 0.97 0.85 0.74 0.68 0.70 0.82 0.91 0.99 0.97 1.00 1.01 0.85 0.76 0.72
1.47 1.42 1.24 1.21 0.90 0.87 0.88 0.83 0.80 0.78 0.83 0.76 0.81 0.71 0.66 0.70 0.69 0.67 0.68 0.63 0.62 0.61 0.57 0.49 0.46 0.42 0.44 0.53 0.71 0.91 1.05 1.14 1.16 1.01 0.91 0.98 0.87 0.76 0.76 0.76 0.77 0.77 0.87 1.00 1.03 0.99 0.87 0.76 0.66
1.55 1.51 1.19 0.96 0.86 0.80 0.76 0.73 0.73 0.78 0.73 0.66 0.76 0.79 0.77 0.75 0.70 0.66 0.62 0.61 0.63 0.70 0.71 0.62 0.50 0.46 0.44 0.48 0.56 0.64 0.79 0.87 0.90 0.93 0.88 0.91 0.92 0.89 0.86 0.78 0.78 0.73 0.81 0.93 1.03 0.98 0.88 0.84 0.78
1.38 1.37 1.36 1.16 0.95 0.85 0.84 0.72 0.61 0.74 0.75 0.73 0.79 0.83 0.80 0.83 0.72 0.67 0.64 0.64 0.66 0.72 0.72 0.71 0.60 0.55 0.51 0.48 0.52 0.55 0.65 0.74 0.78 0.76 0.76 0.86 0.95 0.94 0.91 0.86 0.87 0.85 0.88 1.01 1.00 0.91 0.97 0.97 0.90
1.26 1.47 1.41 1.22 1.01 0.92 0.92 0.98 0.71 0.63 0.74 0.78 0.85 0.77 0.71 0.75 0.70 0.68 0.65 0.63 0.67 0.70 0.67 0.66 0.65 0.65 0.63 0.61 0.59 0.57 0.64 0.74 0.76 0.73 0.68 0.70 0.78 0.84 0.87 0.88 0.88 0.93 1.02 1.08 1.10 0.93 0.97 0.95 0.86
1.54 1.81 1.83 1.31 1.14 0.99 1.09 1.19 0.77 0.68 0.71 0.68 0.69 0.64 0.60 0.61 0.61 0.62 0.63 0.60 0.60 0.57 0.55 0.58 0.58 0.62 0.69 0.71 0.72 0.73 0.73 0.80 0.77 0.76 0.69 0.64 0.69 0.77 0.90 0.91 0.90 0.93 1.06 1.15 1.20 1.11 1.08 1.02 0.98
1.69 1.69 1.56 1.30 1.06 0.98 0.97 0.92 0.72 0.69 0.69 0.58 0.57 0.54 0.52 0.49 0.46 0.47 0.49 0.51 0.51 0.47 0.46 0.49 0.52 0.54 0.64 0.73 0.76 0.84 0.86 0.87 0.85 0.84 0.74 0.71 0.77 0.84 1.01 1.12 1.13 1.13 1.15 1.15 1.10 1.16 1.16 1.14 1.15
1.38 1.29 1.17 1.10 0.92 0.85 0.81 0.69 0.60 0.60 0.58 0.50 0.45 0.42 0.42 0.42 0.37 0.37 0.37 0.37 0.38 0.38 0.39 0.42 0.47 0.50 0.56 0.70 0.82 0.97 1.09 1.05 1.07 1.01 0.89 0.91 1.05 1.19 1.33 1.33 1.41 1.48 1.37 1.33 1.28 1.30 1.25 1.19 1.24
0.93 0.99 1.00 0.92 0.72 0.70 0.66 0.55 0.52 0.53 0.52 0.49 0.44 0.37 0.34 0.32 0.28 0.27 0.30 0.31 0.28 0.27 0.30 0.35 0.39 0.47 0.54 0.61 0.75 0.96 1.24 1.35 1.44 1.40 1.22 1.16 1.28 1.52 1.73 1.70 1.75 1.79 1.68 1.64 1.68 1.88 1.84 1.57 1.33
0.88 1.03 1.02 0.92 0.65 0.59 0.56 0.47 0.42 0.43 0.47 0.41 0.40 0.36 0.28 0.26 0.19 0.17 0.19 0.20 0.20 0.19 0.20 0.26 0.34 0.44 0.52 0.60 0.78 0.94 1.08 1.08 1.26 1.41 1.39 1.30 1.29 1.44 1.58 1.83 1.93 1.87 1.91 2.03 2.04 2.38 2.53 2.09 1.66
0.84 0.85 0.86 0.86 0.67 0.55 0.51 0.50 0.37 0.34 0.38 0.34 0.31 0.31 0.27 0.24 0.20 0.17 0.16 0.15 0.15 0.15 0.16 0.19 0.27 0.37 0.50 0.65 0.88 1.09 1.27 1.36 1.42 1.35 1.43 1.44 1.37 1.41 1.51 1.67 1.83 1.84 1.92 2.01 2.14 2.47 2.95 2.71 2.17
0.75 0.52 0.49 0.57 0.70 0.71 0.58 0.65 0.40 0.34 0.40 0.38 0.33 0.28 0.26 0.22 0.19 0.19 0.18 0.18 0.17 0.16 0.15 0.17 0.26 0.40 0.61 0.82 1.06 1.31 1.52 1.55 1.44 1.48 1.51 1.40 1.34 1.31 1.37 1.52 1.66 1.78 1.81 1.94 2.04 2.16 2.64 2.98 2.67
0.50 0.41 0.39 0.47 0.59 0.55 0.42 0.50 0.40 0.36 0.46 0.44 0.38 0.33 0.27 0.22 0.20 0.19 0.19 0.22 0.23 0.22 0.22 0.28 0.48 0.72 0.98 1.20 1.45 1.73 1.72 1.61 1.51 1.51 1.48 1.42 1.44 1.40 1.39 1.54 1.62 1.64 1.69 1.79 2.12 2.38 2.64 2.84 2.79
0.35 0.39 0.44 0.48 0.57 0.55 0.35 0.41 0.45 0.38 0.41 0.43 0.42 0.35 0.28 0.23 0.26 0.32 0.36 0.43 0.48 0.51 0.65 0.84 1.10 1.29 1.37 1.50 1.67 1.78 1.74 1.75 1.68 1.50 1.40 1.40 1.45 1.50 1.54 1.60 1.61 1.59 1.62 1.73 1.95 2.23 2.44 2.75 2.92
0.30 0.46 0.68 0.73 0.74 0.55 0.31 0.46 0.52 0.38 0.32 0.32 0.34 0.29 0.24 0.28 0.36 0.49 0.63 0.76 0.87 1.01 1.14 1.28 1.46 1.61 1.56 1.52 1.57 1.62 1.61 1.60 1.58 1.52 1.42 1.36 1.38 1.39 1.42 1.53 1.66 1.74 1.77 1.89 2.06 2.20 2.10 2.32 2.70
0.27 0.39 0.73 0.86 0.71 0.51 0.43 0.63 0.59 0.45 0.33 0.25 0.19 0.19 0.29 0.42 0.55 0.66 0.74 0.85 1.02 1.16 1.22 1.23 1.34 1.45 1.43 1.41 1.37 1.34 1.39 1.41 1.36 1.29 1.27 1.30 1.37 1.35 1.29 1.34 1.45 1.59 1.76 1.81 1.85 1.87 1.84 1.97 2.22
0.25 0.28 0.34 0.54 0.45 0.44 0.52 0.71 0.61 0.40 0.34 0.28 0.24 0.28 0.43 0.62 0.83 0.97 1.07 1.19 1.24 1.27 1.33 1.26 1.26 1.31 1.33 1.27 1.18 1.16 1.21 1.25 1.26 1.21 1.21 1.19 1.20 1.12 1.04 1.05 1.09 1.17 1.26 1.34 1.49 1.58 1.70 1.74 1.86
0.23 0.31 0.39 0.63 0.73 0.74 0.71 0.74 0.63 0.49 0.45 0.48 0.55 0.65 0.71 0.81 1.07 1.36 1.60 1.77 1.60 1.34 1.23 1.20 1.13 1.14 1.24 1.23 1.15 1.10 1.16 1.15 1.14 1.16 1.13 1.13 1.12 1.03 0.96 0.93 0.88 0.85 0.84 0.89 1.07 1.27 1.40 1.49 1.65
0.23 0.36 0.46 0.61 0.74 0.96 1.13 1.11 0.87 0.87 0.89 0.96 1.07 1.12 1.13 1.22 1.21 1.36 1.56 1.74 1.64 1.34 1.11 1.12 1.14 1.12 1.12 1.11 1.12 1.11 1.07 0.95 0.93 0.99 0.99 0.97 0.97 1.01 1.00 0.92 0.85 0.92 0.92 0.89 0.96 1.02 1.08 1.15 1.30
0.33 0.45 0.60 0.86 0.80 0.82 1.07 1.19 0.97 0.95 0.97 1.06 1.24 1.32 1.30 1.21 1.12 1.10 1.15 1.23 1.25 1.11 0.93 0.90 1.04 1.11 1.07 1.03 1.06 1.05 0.94 0.87 0.83 0.80 0.77 0.69 0.66 0.69 0.78 0.87 0.82 0.80 0.83 0.86 0.93 0.95 0.99 1.02 1.11